Time,TemperatureF,DewpointF,PressureIn,WindDirection,WindDirectionDegrees,WindSpeedMPH,WindSpeedGustMPH,Humidity,HourlyPrecipIn,Conditions,Clouds,dailyrainin,SoftwareType,DateUTC
2013-08-19 00:04:00,68.7,65.0,30.17,ESE,112,0.0,0.0,88,0.00,,,0.00,WUHU21623XXSP,2013-08-19 04:04:00,
2013-08-19 00:09:00,68.7,65.0,30.17,East,90,0.0,0.0,88,0.00,,,0.00,WUHU21623XXSP,2013-08-19 04:09:00,
2013-08-19 00:14:00,68.7,65.0,30.17,East,90,0.0,0.0,88,0.00,,,0.00,WUHU21623XXSP,2013-08-19 04:14:00,
2013-08-19 00:19:00,68.7,65.0,30.17,NNE,22,0.0,0.0,88,0.00,,,0.00,WUHU21623XXSP,2013-08-19 04:19:00,
2013-08-19 00:24:00,68.7,65.0,30.16,East,90,0.0,0.0,88,0.00,,,0.00,WUHU21623XXSP,2013-08-19 04:24:00,
2013-08-19 00:29:00,68.5,64.8,30.16,ESE,112,0.0,0.0,88,0.00,,,0.00,WUHU21623XXSP,2013-08-19 04:29:00,
2013-08-19 00:34:00,68.5,64.8,30.17,ESE,112,0.0,0.0,88,0.00,,,0.00,WUHU21623XXSP,2013-08-19 04:34:00,
2013-08-19 00:39:00,68.5,64.8,30.17,South,180,0.0,0.0,88,0.00,,,0.00,WUHU21623XXSP,2013-08-19 04:39:00,
2013-08-19 00:44:00,68.5,64.8,30.17,ESE,112,0.0,0.0,88,0.00,,,0.00,WUHU21623XXSP,2013-08-19 04:44:00,
2013-08-19 00:49:00,68.5,64.8,30.17,South,180,0.0,0.0,88,0.00,,,0.00,WUHU21623XXSP,2013-08-19 04:49:00,
2013-08-19 00:54:00,68.5,64.8,30.16,South,180,0.0,0.0,88,0.00,,,0.00,WUHU21623XXSP,2013-08-19 04:54:00,
2013-08-19 00:59:00,68.4,64.6,30.16,ESE,112,0.0,0.0,88,0.00,,,0.00,WUHU21623XXSP,2013-08-19 04:59:00,
2013-08-19 01:04:00,68.4,64.6,30.17,ESE,112,0.0,0.0,88,0.00,,,0.00,WUHU21623XXSP,2013-08-19 05:04:00,
2013-08-19 01:09:00,68.4,64.6,30.17,South,180,0.0,0.0,88,0.00,,,0.00,WUHU21623XXSP,2013-08-19 05:09:00,
2013-08-19 01:14:00,68.4,64.6,30.17,ESE,112,0.0,0.0,88,0.00,,,0.00,WUHU21623XXSP,2013-08-19 05:14:00,
2013-08-19 01:19:00,68.4,64.6,30.17,ESE,112,0.0,0.0,88,0.00,,,0.00,WUHU21623XXSP,2013-08-19 05:19:00,
2013-08-19 01:24:00,68.4,64.6,30.17,ESE,112,0.0,0.0,88,0.00,,,0.00,WUHU21623XXSP,2013-08-19 05:24:00,
2013-08-19 01:29:00,68.4,64.6,30.17,South,180,0.0,0.0,88,0.00,,,0.00,WUHU21623XXSP,2013-08-19 05:29:00,
2013-08-19 01:34:00,68.5,64.8,30.17,ESE,112,0.0,0.0,88,0.00,,,0.00,WUHU21623XXSP,2013-08-19 05:34:00,
2013-08-19 01:40:00,68.4,64.6,30.16,ESE,112,0.0,0.0,88,0.00,,,0.00,WUHU21623XXSP,2013-08-19 05:40:00,
2013-08-19 01:45:00,68.4,64.6,30.16,ESE,112,0.0,0.0,88,0.00,,,0.00,WUHU21623XXSP,2013-08-19 05:45:00,
2013-08-19 01:50:00,68.4,64.6,30.17,South,180,0.0,0.0,88,0.00,,,0.00,WUHU21623XXSP,2013-08-19 05:50:00,
2013-08-19 01:55:00,68.4,64.6,30.16,ESE,112,0.0,0.0,88,0.00,,,0.00,WUHU21623XXSP,2013-08-19 05:55:00,
2013-08-19 02:00:00,68.4,64.6,30.16,ESE,112,0.0,0.0,88,0.00,,,0.00,WUHU21623XXSP,2013-08-19 06:00:00,
2013-08-19 02:05:00,68.4,64.6,30.17,ESE,112,0.0,0.0,88,0.00,,,0.00,WUHU21623XXSP,2013-08-19 06:05:00,
2013-08-19 02:10:00,68.4,64.6,30.16,ESE,112,0.0,0.0,88,0.00,,,0.00,WUHU21623XXSP,2013-08-19 06:10:00,
2013-08-19 02:15:00,68.4,64.6,30.16,ESE,112,0.0,0.0,88,0.00,,,0.00,WUHU21623XXSP,2013-08-19 06:15:00,
2013-08-19 02:20:00,68.4,64.6,30.16,East,90,0.0,0.0,88,0.00,,,0.00,WUHU21623XXSP,2013-08-19 06:20:00,
2013-08-19 02:25:00,68.4,64.6,30.16,East,90,0.0,0.0,88,0.00,,,0.00,WUHU21623XXSP,2013-08-19 06:25:00,
2013-08-19 02:30:00,68.4,64.6,30.16,East,90,0.0,0.0,88,0.00,,,0.00,WUHU21623XXSP,2013-08-19 06:30:00,
2013-08-19 02:35:00,68.2,64.5,30.16,East,90,0.0,0.0,88,0.00,,,0.00,WUHU21623XXSP,2013-08-19 06:35:00,
2013-08-19 02:40:00,68.2,64.5,30.16,East,90,0.0,0.0,88,0.00,,,0.00,WUHU21623XXSP,2013-08-19 06:40:00,
2013-08-19 02:45:00,68.2,64.5,30.16,East,90,0.0,0.0,88,0.00,,,0.00,WUHU21623XXSP,2013-08-19 06:45:00,
2013-08-19 02:50:00,68.2,64.5,30.15,NNE,22,0.0,0.0,88,0.00,,,0.00,WUHU21623XXSP,2013-08-19 06:50:00,
2013-08-19 02:55:00,68.2,64.5,30.15,NNE,22,0.0,0.0,88,0.00,,,0.00,WUHU21623XXSP,2013-08-19 06:55:00,
2013-08-19 03:00:00,68.2,64.5,30.15,North,0,0.0,0.0,88,0.00,,,0.00,WUHU21623XXSP,2013-08-19 07:00:00,
2013-08-19 03:05:00,68.2,64.5,30.15,South,180,0.0,0.0,88,0.00,,,0.00,WUHU21623XXSP,2013-08-19 07:05:00,
2013-08-19 03:10:00,67.8,64.1,30.15,ESE,112,0.0,0.0,88,0.00,,,0.00,WUHU21623XXSP,2013-08-19 07:10:00,
2013-08-19 03:15:00,67.8,64.1,30.15,NNE,22,0.0,0.0,88,0.00,,,0.00,WUHU21623XXSP,2013-08-19 07:15:00,
2013-08-19 03:20:00,68.0,64.3,30.15,NNE,22,0.0,0.0,88,0.00,,,0.00,WUHU21623XXSP,2013-08-19 07:20:00,
2013-08-19 03:25:00,67.8,64.1,30.15,East,90,0.0,0.0,88,0.00,,,0.00,WUHU21623XXSP,2013-08-19 07:25:00,
2013-08-19 03:30:00,67.8,64.1,30.15,NNE,22,0.0,0.0,88,0.00,,,0.00,WUHU21623XXSP,2013-08-19 07:30:00,
2013-08-19 03:35:00,67.8,64.1,30.15,East,90,0.0,0.0,88,0.00,,,0.00,WUHU21623XXSP,2013-08-19 07:35:00,
2013-08-19 03:40:00,67.8,64.1,30.15,East,90,0.0,0.0,88,0.00,,,0.00,WUHU21623XXSP,2013-08-19 07:40:00,
2013-08-19 03:45:00,67.8,64.1,30.15,East,90,0.0,0.0,88,0.00,,,0.00,WUHU21623XXSP,2013-08-19 07:45:00,
2013-08-19 03:50:00,67.8,64.1,30.15,East,90,0.0,0.0,88,0.00,,,0.00,WUHU21623XXSP,2013-08-19 07:50:00,
2013-08-19 03:55:00,67.8,64.1,30.15,East,90,0.0,0.0,88,0.00,,,0.00,WUHU21623XXSP,2013-08-19 07:55:00,
2013-08-19 04:00:00,68.0,64.3,30.15,NNE,22,0.0,0.0,88,0.00,,,0.00,WUHU21623XXSP,2013-08-19 08:00:00,
2013-08-19 04:05:00,68.0,64.3,30.15,ESE,112,0.0,0.0,88,0.00,,,0.00,WUHU21623XXSP,2013-08-19 08:05:00,
2013-08-19 04:11:00,68.0,64.3,30.15,ESE,112,0.0,0.0,88,0.00,,,0.00,WUHU21623XXSP,2013-08-19 08:11:00,
2013-08-19 04:16:00,68.2,64.5,30.15,ESE,112,0.0,0.0,88,0.00,,,0.00,WUHU21623XXSP,2013-08-19 08:16:00,
2013-08-19 04:21:00,68.0,64.3,30.15,South,180,0.0,0.0,88,0.00,,,0.00,WUHU21623XXSP,2013-08-19 08:21:00,
2013-08-19 04:26:00,68.0,64.3,30.15,ESE,112,0.0,0.0,88,0.00,,,0.00,WUHU21623XXSP,2013-08-19 08:26:00,
2013-08-19 04:31:00,67.8,64.1,30.15,SSW,202,0.0,0.0,88,0.00,,,0.00,WUHU21623XXSP,2013-08-19 08:31:00,
2013-08-19 04:36:00,67.8,64.1,30.15,South,180,0.0,0.0,88,0.00,,,0.00,WUHU21623XXSP,2013-08-19 08:36:00,
2013-08-19 04:41:00,68.0,64.3,30.15,ESE,112,0.0,0.0,88,0.00,,,0.00,WUHU21623XXSP,2013-08-19 08:41:00,
2013-08-19 04:46:00,67.8,64.1,30.15,ESE,112,0.0,0.0,88,0.00,,,0.00,WUHU21623XXSP,2013-08-19 08:46:00,
2013-08-19 04:51:00,68.0,64.3,30.14,North,0,0.0,0.0,88,0.00,,,0.00,WUHU21623XXSP,2013-08-19 08:51:00,
2013-08-19 04:56:00,68.0,64.3,30.14,NNE,22,0.0,0.0,88,0.00,,,0.00,WUHU21623XXSP,2013-08-19 08:56:00,
2013-08-19 05:01:00,67.8,64.1,30.14,East,90,0.0,0.0,88,0.00,,,0.00,WUHU21623XXSP,2013-08-19 09:01:00,
2013-08-19 05:06:00,67.8,64.1,30.14,NNE,22,0.0,0.0,88,0.00,,,0.00,WUHU21623XXSP,2013-08-19 09:06:00,
2013-08-19 05:11:00,67.8,64.1,30.14,North,0,0.0,0.0,88,0.00,,,0.00,WUHU21623XXSP,2013-08-19 09:11:00,
2013-08-19 05:16:00,67.8,64.1,30.14,WNW,292,0.0,0.0,88,0.00,,,0.00,WUHU21623XXSP,2013-08-19 09:16:00,
2013-08-19 05:21:00,67.8,64.1,30.14,WNW,292,0.0,0.0,88,0.00,,,0.00,WUHU21623XXSP,2013-08-19 09:21:00,
2013-08-19 05:26:00,67.8,64.1,30.14,NNE,22,0.0,0.0,88,0.00,,,0.00,WUHU21623XXSP,2013-08-19 09:26:00,
2013-08-19 05:31:00,67.8,64.1,30.14,WNW,292,0.0,0.0,88,0.00,,,0.00,WUHU21623XXSP,2013-08-19 09:31:00,
2013-08-19 05:36:00,67.6,63.9,30.14,SSW,202,0.0,0.0,88,0.00,,,0.00,WUHU21623XXSP,2013-08-19 09:36:00,
2013-08-19 05:41:00,67.6,63.9,30.14,West,270,0.0,0.0,88,0.00,,,0.00,WUHU21623XXSP,2013-08-19 09:41:00,
2013-08-19 05:46:00,67.6,63.9,30.14,SSW,202,0.0,0.0,88,0.00,,,0.00,WUHU21623XXSP,2013-08-19 09:46:00,
2013-08-19 05:51:00,67.6,63.9,30.14,SSW,202,0.0,0.0,88,0.00,,,0.00,WUHU21623XXSP,2013-08-19 09:51:00,
2013-08-19 05:56:00,67.6,63.9,30.14,East,90,0.0,0.0,88,0.00,,,0.00,WUHU21623XXSP,2013-08-19 09:56:00,
2013-08-19 06:01:00,67.6,63.9,30.14,East,90,0.0,0.0,88,0.00,,,0.00,WUHU21623XXSP,2013-08-19 10:01:00,
2013-08-19 06:06:00,67.6,63.9,30.14,East,90,0.0,0.0,88,0.00,,,0.00,WUHU21623XXSP,2013-08-19 10:06:00,
2013-08-19 06:11:00,67.6,63.9,30.14,South,180,0.0,0.0,88,0.00,,,0.00,WUHU21623XXSP,2013-08-19 10:11:00,
2013-08-19 06:16:00,67.3,63.6,30.14,East,90,0.0,0.0,88,0.00,,,0.00,WUHU21623XXSP,2013-08-19 10:16:00,
2013-08-19 06:21:00,67.3,63.6,30.14,East,90,0.0,0.0,88,0.00,,,0.00,WUHU21623XXSP,2013-08-19 10:21:00,
2013-08-19 06:26:00,67.3,63.6,30.14,East,90,0.0,0.0,88,0.00,,,0.00,WUHU21623XXSP,2013-08-19 10:26:00,
2013-08-19 06:31:00,67.3,63.6,30.14,ESE,112,0.0,0.0,88,0.00,,,0.00,WUHU21623XXSP,2013-08-19 10:31:00,
2013-08-19 06:36:00,67.3,63.6,30.14,ESE,112,0.0,0.0,88,0.00,,,0.00,WUHU21623XXSP,2013-08-19 10:36:00,
2013-08-19 06:41:00,67.3,63.6,30.15,ESE,112,0.0,0.0,88,0.00,,,0.00,WUHU21623XXSP,2013-08-19 10:41:00,
2013-08-19 06:46:00,67.1,63.4,30.15,South,180,0.0,0.0,88,0.00,,,0.00,WUHU21623XXSP,2013-08-19 10:46:00,
2013-08-19 06:51:00,67.3,63.6,30.15,South,180,0.0,0.0,88,0.00,,,0.00,WUHU21623XXSP,2013-08-19 10:51:00,
2013-08-19 06:56:00,67.1,63.4,30.15,South,180,0.0,0.0,88,0.00,,,0.00,WUHU21623XXSP,2013-08-19 10:56:00,
2013-08-19 07:01:00,67.3,63.6,30.15,NNE,22,0.0,0.0,88,0.00,,,0.00,WUHU21623XXSP,2013-08-19 11:01:00,
2013-08-19 07:06:00,67.3,63.6,30.15,NNE,22,0.0,0.0,88,0.00,,,0.00,WUHU21623XXSP,2013-08-19 11:06:00,
2013-08-19 07:12:00,67.3,63.6,30.15,East,90,0.0,0.0,88,0.00,,,0.00,WUHU21623XXSP,2013-08-19 11:12:00,
2013-08-19 07:17:00,67.1,63.4,30.15,NNE,22,0.0,0.0,88,0.00,,,0.00,WUHU21623XXSP,2013-08-19 11:17:00,
2013-08-19 07:22:00,67.1,63.4,30.15,NNE,22,0.0,0.0,88,0.00,,,0.00,WUHU21623XXSP,2013-08-19 11:22:00,
2013-08-19 07:27:00,67.1,63.4,30.15,NNE,22,0.0,0.0,88,0.00,,,0.00,WUHU21623XXSP,2013-08-19 11:27:00,
2013-08-19 07:32:00,67.1,63.4,30.15,NNE,22,0.0,0.0,88,0.00,,,0.00,WUHU21623XXSP,2013-08-19 11:32:00,
2013-08-19 07:37:00,67.1,63.4,30.15,ESE,112,0.0,0.0,88,0.00,,,0.00,WUHU21623XXSP,2013-08-19 11:37:00,
2013-08-19 07:42:00,67.1,63.4,30.15,East,90,0.0,0.0,88,0.00,,,0.00,WUHU21623XXSP,2013-08-19 11:42:00,
2013-08-19 07:47:00,67.3,63.6,30.15,ESE,112,0.0,0.0,88,0.00,,,0.00,WUHU21623XXSP,2013-08-19 11:47:00,
2013-08-19 07:52:00,67.3,63.6,30.15,ESE,112,0.0,0.0,88,0.00,,,0.00,WUHU21623XXSP,2013-08-19 11:52:00,
2013-08-19 07:57:00,67.3,63.6,30.15,East,90,0.0,0.0,88,0.00,,,0.00,WUHU21623XXSP,2013-08-19 11:57:00,
2013-08-19 08:02:00,67.3,63.6,30.15,NNE,22,0.0,0.0,88,0.00,,,0.00,WUHU21623XXSP,2013-08-19 12:02:00,
2013-08-19 08:07:00,67.5,63.8,30.15,NNE,22,0.0,0.0,88,0.00,,,0.00,WUHU21623XXSP,2013-08-19 12:07:00,
2013-08-19 08:12:00,67.6,63.9,30.16,NNE,22,0.0,0.0,88,0.00,,,0.00,WUHU21623XXSP,2013-08-19 12:12:00,
2013-08-19 08:17:00,67.6,63.9,30.16,SSW,202,0.0,0.0,88,0.00,,,0.00,WUHU21623XXSP,2013-08-19 12:17:00,
2013-08-19 08:22:00,67.6,63.9,30.15,WNW,292,0.0,0.0,88,0.00,,,0.00,WUHU21623XXSP,2013-08-19 12:22:00,
2013-08-19 08:27:00,67.8,64.1,30.15,NNE,22,0.0,0.0,88,0.00,,,0.00,WUHU21623XXSP,2013-08-19 12:27:00,
2013-08-19 08:32:00,67.8,64.1,30.15,NNE,22,0.0,0.0,88,0.00,,,0.00,WUHU21623XXSP,2013-08-19 12:32:00,
2013-08-19 08:37:00,67.8,64.1,30.15,NNE,22,0.0,0.0,88,0.00,,,0.00,WUHU21623XXSP,2013-08-19 12:37:00,
2013-08-19 08:42:00,67.8,64.1,30.15,NNE,22,0.0,0.0,88,0.00,,,0.00,WUHU21623XXSP,2013-08-19 12:42:00,
2013-08-19 08:47:00,67.8,64.1,30.15,NNE,22,0.0,0.0,88,0.00,,,0.00,WUHU21623XXSP,2013-08-19 12:47:00,
2013-08-19 08:52:00,68.2,64.5,30.15,NNE,22,0.0,0.0,88,0.00,,,0.00,WUHU21623XXSP,2013-08-19 12:52:00,
2013-08-19 08:57:00,68.5,64.8,30.15,WNW,292,0.0,0.0,88,0.00,,,0.00,WUHU21623XXSP,2013-08-19 12:57:00,
2013-08-19 09:02:00,69.1,65.3,30.15,NNE,22,0.0,0.0,88,0.00,,,0.00,WUHU21623XXSP,2013-08-19 13:02:00,
2013-08-19 09:07:00,68.9,65.2,30.16,WNW,292,0.0,0.0,88,0.00,,,0.00,WUHU21623XXSP,2013-08-19 13:07:00,
2013-08-19 09:12:00,69.1,65.3,30.16,NNE,22,0.0,0.0,88,0.00,,,0.00,WUHU21623XXSP,2013-08-19 13:12:00,
2013-08-19 09:17:00,69.3,65.5,30.16,NNE,22,0.0,0.0,88,0.00,,,0.00,WUHU21623XXSP,2013-08-19 13:17:00,
2013-08-19 09:22:00,70.0,66.2,30.16,East,90,0.0,0.0,88,0.00,,,0.00,WUHU21623XXSP,2013-08-19 13:22:00,
2013-08-19 09:27:00,70.2,66.4,30.16,NNE,22,0.0,0.0,88,0.00,,,0.00,WUHU21623XXSP,2013-08-19 13:27:00,
2013-08-19 09:32:00,70.5,66.8,30.16,East,90,0.0,0.0,88,0.00,,,0.00,WUHU21623XXSP,2013-08-19 13:32:00,
2013-08-19 09:43:00,70.9,67.5,30.16,ESE,112,1.4,1.7,89,0.00,,,0.00,WUHU21623XXSP,2013-08-19 13:43:00,
2013-08-19 09:53:00,71.2,67.8,30.16,ESE,112,1.2,1.9,89,0.00,,,0.00,WUHU21623XXSP,2013-08-19 13:53:00,
2013-08-19 09:58:00,71.4,67.7,30.16,ESE,112,0.0,1.9,88,0.00,,,0.00,WUHU21623XXSP,2013-08-19 13:58:00,
2013-08-19 10:03:00,71.6,67.9,30.16,East,90,0.0,1.3,88,0.00,,,0.00,WUHU21623XXSP,2013-08-19 14:03:00,
2013-08-19 10:08:00,71.8,67.7,30.17,ESE,112,0.0,2.7,87,0.00,,,0.00,WUHU21623XXSP,2013-08-19 14:08:00,
2013-08-19 10:13:00,72.1,68.1,30.17,ESE,112,0.0,2.7,87,0.00,,,0.00,WUHU21623XXSP,2013-08-19 14:13:00,
2013-08-19 10:18:00,72.1,68.1,30.17,ESE,112,2.3,2.7,87,0.00,,,0.00,WUHU21623XXSP,2013-08-19 14:18:00,
2013-08-19 10:23:00,72.1,67.7,30.17,ESE,112,0.0,2.7,86,0.00,,,0.00,WUHU21623XXSP,2013-08-19 14:23:00,
2013-08-19 10:28:00,72.5,68.4,30.17,ESE,112,0.0,1.9,87,0.00,,,0.00,WUHU21623XXSP,2013-08-19 14:28:00,
2013-08-19 10:33:00,72.7,68.3,30.17,ESE,112,0.0,1.7,86,0.00,,,0.00,WUHU21623XXSP,2013-08-19 14:33:00,
2013-08-19 10:38:00,72.7,67.9,30.17,East,90,1.4,1.7,85,0.00,,,0.00,WUHU21623XXSP,2013-08-19 14:38:00,
2013-08-19 10:43:00,72.5,67.7,30.17,East,90,0.0,1.7,85,0.00,,,0.00,WUHU21623XXSP,2013-08-19 14:43:00,
2013-08-19 10:48:00,72.3,67.6,30.17,West,270,0.0,1.7,85,0.00,,,0.00,WUHU21623XXSP,2013-08-19 14:48:00,
2013-08-19 10:53:00,72.3,67.9,30.17,South,180,0.0,0.0,86,0.00,,,0.00,WUHU21623XXSP,2013-08-19 14:53:00,
2013-08-19 10:58:00,72.3,67.9,30.17,ESE,112,1.4,1.7,86,0.00,,,0.00,WUHU21623XXSP,2013-08-19 14:58:00,
2013-08-19 11:03:00,72.3,67.9,30.17,East,90,0.0,1.7,86,0.00,,,0.00,WUHU21623XXSP,2013-08-19 15:03:00,
2013-08-19 11:08:00,72.3,67.9,30.17,ESE,112,0.0,1.7,86,0.00,,,0.00,WUHU21623XXSP,2013-08-19 15:08:00,
2013-08-19 11:13:00,72.3,67.9,30.17,East,90,0.0,0.0,86,0.00,,,0.00,WUHU21623XXSP,2013-08-19 15:13:00,
2013-08-19 11:18:00,72.3,67.9,30.18,East,90,0.0,0.0,86,0.00,,,0.00,WUHU21623XXSP,2013-08-19 15:18:00,
2013-08-19 11:24:00,72.3,67.9,30.18,ESE,112,0.0,0.3,86,0.00,,,0.00,WUHU21623XXSP,2013-08-19 15:24:00,
2013-08-19 11:29:00,72.3,67.9,30.18,East,90,0.0,0.3,86,0.00,,,0.00,WUHU21623XXSP,2013-08-19 15:29:00,
2013-08-19 11:34:00,72.3,67.9,30.18,East,90,1.7,1.9,86,0.00,,,0.00,WUHU21623XXSP,2013-08-19 15:34:00,
2013-08-19 11:39:00,72.3,67.9,30.17,NNE,22,0.0,1.9,86,0.00,,,0.00,WUHU21623XXSP,2013-08-19 15:39:00,
2013-08-19 11:44:00,72.7,68.3,30.18,ESE,112,1.2,1.9,86,0.00,,,0.00,WUHU21623XXSP,2013-08-19 15:44:00,
2013-08-19 11:49:00,72.9,68.1,30.17,NNE,22,0.0,1.3,85,0.00,,,0.00,WUHU21623XXSP,2013-08-19 15:49:00,
2013-08-19 11:54:00,73.2,68.5,30.17,East,90,2.6,3.0,85,0.00,,,0.00,WUHU21623XXSP,2013-08-19 15:54:00,
2013-08-19 11:59:00,73.2,68.1,30.17,East,90,2.6,3.0,84,0.00,,,0.00,WUHU21623XXSP,2013-08-19 15:59:00,
2013-08-19 12:04:00,73.4,68.6,30.17,NNE,22,0.0,3.0,85,0.00,,,0.00,WUHU21623XXSP,2013-08-19 16:04:00,
2013-08-19 12:09:00,73.4,68.6,30.17,East,90,1.2,1.3,85,0.00,,,0.00,WUHU21623XXSP,2013-08-19 16:09:00,
2013-08-19 12:14:00,73.2,68.5,30.17,East,90,1.2,1.3,85,0.00,,,0.00,WUHU21623XXSP,2013-08-19 16:14:00,
2013-08-19 12:19:00,73.2,68.5,30.17,East,90,0.0,1.3,85,0.00,,,0.00,WUHU21623XXSP,2013-08-19 16:19:00,
2013-08-19 12:24:00,73.2,68.5,30.17,North,0,0.0,4.4,85,0.00,,,0.00,WUHU21623XXSP,2013-08-19 16:24:00,
2013-08-19 12:29:00,73.2,68.8,30.17,East,90,0.0,4.4,86,0.00,,,0.00,WUHU21623XXSP,2013-08-19 16:29:00,
2013-08-19 12:34:00,73.2,68.8,30.17,East,90,16.0,18.5,86,0.00,,,0.00,WUHU21623XXSP,2013-08-19 16:34:00,
2013-08-19 12:39:00,72.9,68.4,30.17,ESE,112,1.2,18.5,86,0.00,,,0.00,WUHU21623XXSP,2013-08-19 16:39:00,
2013-08-19 12:44:00,72.3,68.2,30.17,South,180,0.0,18.5,87,0.00,,,0.00,WUHU21623XXSP,2013-08-19 16:44:00,
2013-08-19 12:49:00,72.3,68.2,30.17,ESE,112,0.0,1.9,87,0.00,,,0.00,WUHU21623XXSP,2013-08-19 16:49:00,
2013-08-19 12:54:00,72.1,68.1,30.17,ESE,112,1.4,1.7,87,0.00,,,0.00,WUHU21623XXSP,2013-08-19 16:54:00,
2013-08-19 12:59:00,71.8,67.7,30.17,West,270,0.0,1.7,87,0.00,,,0.00,WUHU21623XXSP,2013-08-19 16:59:00,
2013-08-19 13:04:00,71.8,67.7,30.17,NNE,22,0.0,1.7,87,0.00,,,0.00,WUHU21623XXSP,2013-08-19 17:04:00,
2013-08-19 13:09:00,71.8,67.7,30.17,ESE,112,0.0,1.7,87,0.00,,,0.00,WUHU21623XXSP,2013-08-19 17:09:00,
2013-08-19 13:14:00,72.0,67.9,30.17,WNW,292,0.0,0.0,87,0.00,,,0.00,WUHU21623XXSP,2013-08-19 17:14:00,
2013-08-19 13:19:00,72.0,67.9,30.17,West,270,0.0,0.0,87,0.00,,,0.00,WUHU21623XXSP,2013-08-19 17:19:00,
2013-08-19 13:25:00,72.1,68.4,30.17,West,270,0.0,0.0,88,0.00,,,0.00,WUHU21623XXSP,2013-08-19 17:25:00,
2013-08-19 13:30:00,72.3,68.6,30.17,SSW,202,0.0,1.3,88,0.00,,,0.00,WUHU21623XXSP,2013-08-19 17:30:00,
2013-08-19 13:35:00,72.7,68.9,30.17,North,0,0.0,1.3,88,0.00,,,0.00,WUHU21623XXSP,2013-08-19 17:35:00,
2013-08-19 13:40:00,72.7,68.9,30.17,ESE,112,0.0,0.0,88,0.00,,,0.00,WUHU21623XXSP,2013-08-19 17:40:00,
2013-08-19 13:45:00,72.7,68.9,30.17,ESE,112,1.7,1.9,88,0.00,,,0.00,WUHU21623XXSP,2013-08-19 17:45:00,
2013-08-19 13:50:00,72.5,68.8,30.17,North,0,0.0,1.9,88,0.00,,,0.00,WUHU21623XXSP,2013-08-19 17:50:00,
2013-08-19 13:55:00,72.3,68.6,30.16,North,0,0.0,1.9,88,0.00,,,0.00,WUHU21623XXSP,2013-08-19 17:55:00,
2013-08-19 14:00:00,72.7,68.9,30.16,SSW,202,0.0,0.0,88,0.00,,,0.00,WUHU21623XXSP,2013-08-19 18:00:00,
2013-08-19 14:05:00,72.7,68.9,30.16,North,0,0.0,0.0,88,0.00,,,0.00,WUHU21623XXSP,2013-08-19 18:05:00,
2013-08-19 14:10:00,73.0,69.3,30.16,East,90,0.0,0.0,88,0.00,,,0.00,WUHU21623XXSP,2013-08-19 18:10:00,
2013-08-19 14:15:00,72.7,68.9,30.16,ESE,112,0.0,0.0,88,0.00,,,0.00,WUHU21623XXSP,2013-08-19 18:15:00,
2013-08-19 14:20:00,72.7,68.6,30.16,ESE,112,0.0,1.9,87,0.00,,,0.00,WUHU21623XXSP,2013-08-19 18:20:00,
2013-08-19 14:25:00,72.5,68.8,30.16,WNW,292,0.0,1.9,88,0.00,,,0.00,WUHU21623XXSP,2013-08-19 18:25:00,
2013-08-19 14:30:00,73.0,69.3,30.16,SSW,202,0.0,1.0,88,0.00,,,0.00,WUHU21623XXSP,2013-08-19 18:30:00,
2013-08-19 14:35:00,73.0,69.3,30.15,East,90,0.0,0.0,88,0.00,,,0.00,WUHU21623XXSP,2013-08-19 18:35:00,
2013-08-19 14:40:00,72.9,69.1,30.15,East,90,0.0,0.0,88,0.00,,,0.00,WUHU21623XXSP,2013-08-19 18:40:00,
2013-08-19 14:45:00,72.7,68.6,30.15,NNE,22,2.9,3.3,87,0.00,,,0.00,WUHU21623XXSP,2013-08-19 18:45:00,
2013-08-19 14:50:00,73.0,68.8,30.15,ESE,112,0.0,3.3,88,0.00,,,0.00,WUHU21623XXSP,2013-08-19 18:50:00,
2013-08-19 14:55:00,72.9,69.1,30.15,East,90,0.0,3.3,88,0.00,,,0.00,WUHU21623XXSP,2013-08-19 18:55:00,
2013-08-19 15:00:00,73.0,69.3,30.15,South,180,0.0,0.0,88,0.00,,,0.00,WUHU21623XXSP,2013-08-19 19:00:00,
2013-08-19 15:05:00,73.0,69.3,30.15,NNE,22,0.0,1.7,88,0.00,,,0.00,WUHU21623XXSP,2013-08-19 19:05:00,
2013-08-19 15:10:00,73.2,69.5,30.15,NNE,22,0.0,1.7,88,0.00,,,0.00,WUHU21623XXSP,2013-08-19 19:10:00,
2013-08-19 15:15:00,73.2,69.5,30.14,East,90,0.0,0.0,88,0.00,,,0.00,WUHU21623XXSP,2013-08-19 19:15:00,
2013-08-19 15:20:00,73.2,69.5,30.14,North,0,0.0,0.0,88,0.00,,,0.00,WUHU21623XXSP,2013-08-19 19:20:00,
2013-08-19 15:25:00,73.4,69.7,30.14,SSW,202,0.0,0.0,88,0.00,,,0.00,WUHU21623XXSP,2013-08-19 19:25:00,
2013-08-19 15:30:00,73.4,69.7,30.14,WNW,292,0.0,0.0,88,0.00,,,0.00,WUHU21623XXSP,2013-08-19 19:30:00,
2013-08-19 15:35:00,73.4,69.7,30.13,East,90,0.0,0.0,88,0.00,,,0.00,WUHU21623XXSP,2013-08-19 19:35:00,
2013-08-19 15:41:00,73.6,69.5,30.13,NNE,22,0.0,0.0,87,0.00,,,0.00,WUHU21623XXSP,2013-08-19 19:41:00,
2013-08-19 15:46:00,73.8,70.0,30.13,ESE,112,0.0,0.0,88,0.00,,,0.00,WUHU21623XXSP,2013-08-19 19:46:00,
2013-08-19 15:51:00,73.8,70.0,30.13,ESE,112,0.0,0.0,88,0.00,,,0.00,WUHU21623XXSP,2013-08-19 19:51:00,
2013-08-19 15:56:00,73.8,69.7,30.13,NNE,22,0.0,0.0,87,0.00,,,0.00,WUHU21623XXSP,2013-08-19 19:56:00,
2013-08-19 16:01:00,73.8,70.0,30.13,North,0,0.0,0.0,88,0.00,,,0.00,WUHU21623XXSP,2013-08-19 20:01:00,
2013-08-19 16:06:00,73.6,69.8,30.12,North,0,0.0,0.0,88,0.00,,,0.00,WUHU21623XXSP,2013-08-19 20:06:00,
2013-08-19 16:11:00,73.4,69.7,30.12,WNW,292,0.0,0.0,88,0.00,,,0.00,WUHU21623XXSP,2013-08-19 20:11:00,
2013-08-19 16:16:00,73.2,69.5,30.12,WNW,292,0.0,0.0,88,0.00,,,0.00,WUHU21623XXSP,2013-08-19 20:16:00,
2013-08-19 16:21:00,73.2,69.5,30.13,North,0,0.0,0.0,88,0.00,,,0.00,WUHU21623XXSP,2013-08-19 20:21:00,
2013-08-19 16:26:00,73.6,69.8,30.12,North,0,0.0,0.0,88,0.00,,,0.00,WUHU21623XXSP,2013-08-19 20:26:00,
2013-08-19 16:31:00,73.6,69.8,30.12,NNE,22,1.2,1.3,88,0.00,,,0.00,WUHU21623XXSP,2013-08-19 20:31:00,
2013-08-19 16:36:00,73.8,70.0,30.12,North,0,0.0,1.3,88,0.00,,,0.00,WUHU21623XXSP,2013-08-19 20:36:00,
2013-08-19 16:41:00,73.9,70.2,30.12,NNE,22,0.0,1.3,88,0.00,,,0.00,WUHU21623XXSP,2013-08-19 20:41:00,
2013-08-19 16:46:00,74.5,70.7,30.12,North,0,1.7,1.9,88,0.00,,,0.00,WUHU21623XXSP,2013-08-19 20:46:00,
2013-08-19 16:51:00,74.8,70.8,30.12,WNW,292,0.0,1.9,87,0.00,,,0.00,WUHU21623XXSP,2013-08-19 20:51:00,
2013-08-19 16:56:00,74.8,70.8,30.11,North,0,0.0,3.3,87,0.00,,,0.00,WUHU21623XXSP,2013-08-19 20:56:00,
2013-08-19 17:01:00,74.8,70.4,30.12,NNE,22,0.0,3.3,86,0.00,,,0.00,WUHU21623XXSP,2013-08-19 21:01:00,
2013-08-19 17:06:00,75.0,70.9,30.11,NNE,22,0.0,1.9,87,0.00,,,0.00,WUHU21623XXSP,2013-08-19 21:06:00,
2013-08-19 17:11:00,75.0,70.9,30.10,East,90,0.0,1.3,87,0.00,,,0.00,WUHU21623XXSP,2013-08-19 21:11:00,
2013-08-19 17:16:00,75.7,71.3,30.10,NNE,22,3.3,3.8,86,0.00,,,0.00,WUHU21623XXSP,2013-08-19 21:16:00,
2013-08-19 17:21:00,75.9,71.1,30.10,NNE,22,0.0,3.8,85,0.00,,,0.00,WUHU21623XXSP,2013-08-19 21:21:00,
2013-08-19 17:26:00,76.1,71.3,30.10,NNE,22,1.7,3.8,85,0.00,,,0.00,WUHU21623XXSP,2013-08-19 21:26:00,
2013-08-19 17:31:00,76.1,70.6,30.11,North,0,0.0,1.9,83,0.00,,,0.00,WUHU21623XXSP,2013-08-19 21:31:00,
2013-08-19 17:36:00,75.9,71.1,30.10,WNW,292,0.0,0.0,85,0.00,,,0.00,WUHU21623XXSP,2013-08-19 21:36:00,
2013-08-19 17:41:00,75.4,70.6,30.10,WNW,292,0.0,0.0,85,0.00,,,0.00,WUHU21623XXSP,2013-08-19 21:41:00,
2013-08-19 17:46:00,75.4,70.9,30.09,North,0,0.0,0.0,86,0.00,,,0.00,WUHU21623XXSP,2013-08-19 21:46:00,
2013-08-19 17:51:00,75.6,71.1,30.10,North,0,0.0,0.0,86,0.00,,,0.00,WUHU21623XXSP,2013-08-19 21:51:00,
2013-08-19 17:56:00,75.7,70.9,30.09,NNE,22,0.0,0.0,85,0.00,,,0.00,WUHU21623XXSP,2013-08-19 21:56:00,
2013-08-19 18:02:00,75.7,70.9,30.09,North,0,0.0,0.0,85,0.00,,,0.00,WUHU21623XXSP,2013-08-19 22:02:00,
2013-08-19 18:07:00,75.6,70.8,30.10,NNE,22,0.0,0.0,85,0.00,,,0.00,WUHU21623XXSP,2013-08-19 22:07:00,
2013-08-19 18:12:00,75.6,70.8,30.09,NNE,22,0.0,0.0,85,0.00,,,0.00,WUHU21623XXSP,2013-08-19 22:12:00,
2013-08-19 18:17:00,75.6,70.4,30.09,NNE,22,0.0,0.0,84,0.00,,,0.00,WUHU21623XXSP,2013-08-19 22:17:00,
2013-08-19 18:22:00,75.7,70.6,30.10,North,0,0.0,0.0,84,0.00,,,0.00,WUHU21623XXSP,2013-08-19 22:22:00,
2013-08-19 18:27:00,75.7,71.3,30.10,North,0,0.0,0.0,86,0.00,,,0.00,WUHU21623XXSP,2013-08-19 22:27:00,
2013-08-19 18:32:00,75.6,71.1,30.09,NNE,22,0.0,0.0,86,0.00,,,0.00,WUHU21623XXSP,2013-08-19 22:32:00,
2013-08-19 18:37:00,75.4,70.6,30.10,NNE,22,0.0,0.0,85,0.00,,,0.00,WUHU21623XXSP,2013-08-19 22:37:00,
2013-08-19 18:42:00,75.2,70.8,30.10,North,0,0.0,0.0,86,0.00,,,0.00,WUHU21623XXSP,2013-08-19 22:42:00,
2013-08-19 18:47:00,75.0,70.6,30.10,North,0,0.0,0.0,86,0.00,,,0.00,WUHU21623XXSP,2013-08-19 22:47:00,
2013-08-19 18:52:00,74.8,70.4,30.09,North,0,0.0,0.0,86,0.00,,,0.00,WUHU21623XXSP,2013-08-19 22:52:00,
2013-08-19 18:57:00,74.7,70.2,30.09,North,0,0.0,0.0,86,0.00,,,0.00,WUHU21623XXSP,2013-08-19 22:57:00,
2013-08-19 19:02:00,74.7,70.2,30.09,North,0,0.0,0.0,86,0.00,,,0.00,WUHU21623XXSP,2013-08-19 23:02:00,
2013-08-19 19:07:00,74.5,70.1,30.09,West,270,0.0,0.0,86,0.00,,,0.00,WUHU21623XXSP,2013-08-19 23:07:00,
2013-08-19 19:12:00,74.3,70.2,30.09,West,270,0.0,0.0,87,0.00,,,0.00,WUHU21623XXSP,2013-08-19 23:12:00,
2013-08-19 19:17:00,74.3,70.2,30.09,West,270,0.0,0.0,87,0.00,,,0.00,WUHU21623XXSP,2013-08-19 23:17:00,
2013-08-19 19:22:00,74.3,70.2,30.09,WNW,292,0.0,0.0,87,0.00,,,0.00,WUHU21623XXSP,2013-08-19 23:22:00,
2013-08-19 19:27:00,74.3,70.2,30.09,West,270,0.0,0.0,87,0.00,,,0.00,WUHU21623XXSP,2013-08-19 23:27:00,
2013-08-19 19:32:00,74.1,70.0,30.09,West,270,0.0,0.0,87,0.00,,,0.00,WUHU21623XXSP,2013-08-19 23:32:00,
2013-08-19 19:37:00,74.1,70.4,30.09,West,270,0.0,0.0,88,0.00,,,0.00,WUHU21623XXSP,2013-08-19 23:37:00,
2013-08-19 19:42:00,74.1,70.4,30.09,NNE,22,0.0,0.0,88,0.00,,,0.00,WUHU21623XXSP,2013-08-19 23:42:00,
2013-08-19 19:47:00,74.1,70.4,30.09,NNE,22,0.0,0.0,88,0.00,,,0.00,WUHU21623XXSP,2013-08-19 23:47:00,
2013-08-19 19:52:00,73.8,70.0,30.09,West,270,0.0,0.0,88,0.00,,,0.00,WUHU21623XXSP,2013-08-19 23:52:00,
2013-08-19 19:57:00,73.6,69.8,30.09,SSW,202,0.0,0.0,88,0.00,,,0.00,WUHU21623XXSP,2013-08-19 23:57:00,
2013-08-19 20:02:00,73.2,69.5,30.09,SSW,202,0.0,0.0,88,0.00,,,0.00,WUHU21623XXSP,2013-08-20 00:02:00,
2013-08-19 20:07:00,73.2,69.5,30.09,South,180,0.0,0.0,88,0.00,,,0.00,WUHU21623XXSP,2013-08-20 00:07:00,
2013-08-19 20:12:00,73.0,69.3,30.10,WNW,292,0.0,0.0,88,0.00,,,0.00,WUHU21623XXSP,2013-08-20 00:12:00,
2013-08-19 20:17:00,72.7,68.9,30.09,WNW,292,0.0,0.0,88,0.00,,,0.00,WUHU21623XXSP,2013-08-20 00:17:00,
2013-08-19 20:23:00,72.5,68.8,30.09,ESE,112,0.0,0.0,88,0.00,,,0.00,WUHU21623XXSP,2013-08-20 00:23:00,
2013-08-19 20:28:00,72.3,68.6,30.09,ESE,112,0.0,0.0,88,0.00,,,0.00,WUHU21623XXSP,2013-08-20 00:28:00,
2013-08-19 20:33:00,72.3,68.6,30.09,ESE,112,0.0,0.0,88,0.00,,,0.00,WUHU21623XXSP,2013-08-20 00:33:00,
2013-08-19 20:38:00,72.0,68.2,30.09,ESE,112,0.0,0.0,88,0.00,,,0.00,WUHU21623XXSP,2013-08-20 00:38:00,
2013-08-19 20:43:00,71.8,68.0,30.09,South,180,0.0,0.0,88,0.00,,,0.00,WUHU21623XXSP,2013-08-20 00:43:00,
2013-08-19 20:48:00,71.4,67.7,30.10,ESE,112,0.0,0.0,88,0.00,,,0.00,WUHU21623XXSP,2013-08-20 00:48:00,
2013-08-19 20:53:00,71.2,67.5,30.10,ESE,112,0.0,0.0,88,0.00,,,0.00,WUHU21623XXSP,2013-08-20 00:53:00,
2013-08-19 20:58:00,71.2,67.5,30.10,East,90,0.0,0.0,88,0.00,,,0.00,WUHU21623XXSP,2013-08-20 00:58:00,
2013-08-19 21:03:00,71.1,67.3,30.10,NNE,22,0.0,0.0,88,0.00,,,0.00,WUHU21623XXSP,2013-08-20 01:03:00,
2013-08-19 21:08:00,70.5,66.8,30.10,ESE,112,0.0,0.0,88,0.00,,,0.00,WUHU21623XXSP,2013-08-20 01:08:00,
2013-08-19 21:13:00,70.3,66.6,30.10,ESE,112,0.0,0.0,88,0.00,,,0.00,WUHU21623XXSP,2013-08-20 01:13:00,
2013-08-19 21:18:00,70.2,66.4,30.11,East,90,0.0,0.0,88,0.00,,,0.00,WUHU21623XXSP,2013-08-20 01:18:00,
2013-08-19 21:23:00,70.0,66.2,30.11,NNE,22,0.0,0.0,88,0.00,,,0.00,WUHU21623XXSP,2013-08-20 01:23:00,
2013-08-19 21:28:00,70.0,66.2,30.11,East,90,0.0,0.0,88,0.00,,,0.00,WUHU21623XXSP,2013-08-20 01:28:00,
2013-08-19 21:33:00,69.8,66.1,30.11,East,90,0.0,0.0,88,0.00,,,0.00,WUHU21623XXSP,2013-08-20 01:33:00,
2013-08-19 21:38:00,69.6,65.9,30.11,East,90,0.0,0.0,88,0.00,,,0.00,WUHU21623XXSP,2013-08-20 01:38:00,
2013-08-19 21:43:00,69.6,65.9,30.11,East,90,0.0,0.0,88,0.00,,,0.00,WUHU21623XXSP,2013-08-20 01:43:00,
2013-08-19 21:48:00,69.4,65.7,30.12,East,90,0.0,1.3,88,0.00,,,0.00,WUHU21623XXSP,2013-08-20 01:48:00,
2013-08-19 21:53:00,69.4,65.7,30.12,East,90,0.0,1.3,88,0.00,,,0.00,WUHU21623XXSP,2013-08-20 01:53:00,
2013-08-19 21:58:00,69.3,65.5,30.12,East,90,0.0,0.0,88,0.00,,,0.00,WUHU21623XXSP,2013-08-20 01:58:00,
2013-08-19 22:03:00,69.1,65.3,30.13,ESE,112,0.0,0.0,88,0.00,,,0.00,WUHU21623XXSP,2013-08-20 02:03:00,
2013-08-19 22:08:00,68.9,65.2,30.13,East,90,0.0,0.0,88,0.00,,,0.00,WUHU21623XXSP,2013-08-20 02:08:00,
2013-08-19 22:13:00,68.9,65.2,30.13,East,90,0.0,0.0,88,0.00,,,0.00,WUHU21623XXSP,2013-08-20 02:13:00,
2013-08-19 22:18:00,68.7,65.0,30.13,ESE,112,0.0,0.0,88,0.00,,,0.00,WUHU21623XXSP,2013-08-20 02:18:00,
2013-08-19 22:23:00,68.7,65.0,30.13,East,90,0.0,0.0,88,0.00,,,0.00,WUHU21623XXSP,2013-08-20 02:23:00,
2013-08-19 22:28:00,68.7,65.0,30.13,South,180,0.0,0.0,88,0.00,,,0.00,WUHU21623XXSP,2013-08-20 02:28:00,
2013-08-19 22:33:00,68.5,64.8,30.13,South,180,0.0,0.0,88,0.00,,,0.00,WUHU21623XXSP,2013-08-20 02:33:00,
2013-08-19 22:38:00,68.5,64.8,30.13,East,90,0.0,0.0,88,0.00,,,0.00,WUHU21623XXSP,2013-08-20 02:38:00,
2013-08-19 22:43:00,68.5,64.8,30.13,ESE,112,0.0,0.0,88,0.00,,,0.00,WUHU21623XXSP,2013-08-20 02:43:00,
2013-08-19 22:48:00,68.5,64.8,30.13,ESE,112,0.0,0.0,88,0.00,,,0.00,WUHU21623XXSP,2013-08-20 02:48:00,
2013-08-19 22:53:00,68.5,64.8,30.13,ESE,112,0.0,0.0,88,0.00,,,0.00,WUHU21623XXSP,2013-08-20 02:53:00,
2013-08-19 22:59:00,68.5,64.8,30.13,ESE,112,0.0,0.0,88,0.00,,,0.00,WUHU21623XXSP,2013-08-20 02:59:00,
2013-08-19 23:04:00,68.5,64.8,30.13,South,180,0.0,0.0,88,0.00,,,0.00,WUHU21623XXSP,2013-08-20 03:04:00,
2013-08-19 23:09:00,68.5,64.8,30.13,NNE,22,0.0,0.0,88,0.00,,,0.00,WUHU21623XXSP,2013-08-20 03:09:00,
2013-08-19 23:14:00,68.5,64.8,30.13,East,90,0.0,0.0,88,0.00,,,0.00,WUHU21623XXSP,2013-08-20 03:14:00,
2013-08-19 23:19:00,68.5,64.8,30.13,East,90,0.0,0.0,88,0.00,,,0.00,WUHU21623XXSP,2013-08-20 03:19:00,
2013-08-19 23:24:00,68.5,64.8,30.13,East,90,0.0,0.0,88,0.00,,,0.00,WUHU21623XXSP,2013-08-20 03:24:00,
2013-08-19 23:29:00,68.5,64.8,30.13,East,90,0.0,0.0,88,0.00,,,0.00,WUHU21623XXSP,2013-08-20 03:29:00,
2013-08-19 23:34:00,68.4,64.6,30.13,East,90,0.0,0.0,88,0.00,,,0.00,WUHU21623XXSP,2013-08-20 03:34:00,
2013-08-19 23:39:00,68.5,64.8,30.13,NNE,22,0.0,0.0,88,0.00,,,0.00,WUHU21623XXSP,2013-08-20 03:39:00,
2013-08-19 23:44:00,68.5,64.8,30.14,East,90,0.0,0.0,88,0.00,,,0.00,WUHU21623XXSP,2013-08-20 03:44:00,
2013-08-19 23:49:00,68.5,64.8,30.13,East,90,0.0,0.0,88,0.00,,,0.00,WUHU21623XXSP,2013-08-20 03:49:00,
2013-08-19 23:54:00,68.4,64.6,30.13,NNE,22,0.0,0.0,88,0.00,,,0.00,WUHU21623XXSP,2013-08-20 03:54:00,
2013-08-19 23:59:00,68.4,64.6,30.14,East,90,0.0,0.0,88,0.00,,,0.00,WUHU21623XXSP,2013-08-20 03:59:00,